Simultaneous Nadir Overpasses (SNOs) Predictions

Prediction of SNOs between AQUA and METOP-B Satellite Orbit:

Table of predicted SNOs for the next 14.0 days since TLE Epoch: 1/11/2013
Index Date (AQUA) Time (AQUA) Lat,Lon (AQUA) SZA (AQUA ) Date (METOP-B) Time (METOP-B) Lat,Lon (METOP-B) SZA (METOP-B ) Distance(km) Time Diff (sec)
1 01/13/2013 20:33:59 73.74,-134.16 95.13 01/13/2013 20:33:12 73.72,-134.06 95.12 3.75 47
2 01/13/2013 21:23:24 -73.76, 33.44 84.86 01/13/2013 21:23:52 -73.76, 33.35 84.86 2.90 28
3 01/16/2013 16:08:12 73.72, -67.68 94.60 01/16/2013 16:07:36 73.73, -67.64 94.61 1.11 36
4 01/16/2013 16:57:39 -73.79, 99.82 85.34 01/16/2013 16:58:16 -73.81, 99.87 85.33 2.32 37
5 01/19/2013 11:42:27 73.75, -1.30 94.07 01/19/2013 11:42:01 73.73, -1.23 94.04 3.33 26
6 01/19/2013 12:31:54 -73.82, 166.21 85.88 01/19/2013 12:32:41 -73.80, 166.27 85.90 2.46 47
7 01/22/2013 06:27:05 -73.27,-101.46 87.07 01/22/2013 06:25:56 -73.22,-103.32 87.03 59.93 69
8 01/22/2013 07:16:41 73.73, 65.20 93.42 01/22/2013 07:16:26 73.73, 65.17 93.43 1.13 15
9 01/22/2013 08:06:08 -73.79,-127.28 86.53 01/22/2013 08:07:06 -73.80,-127.33 86.52 2.23 58
10 01/25/2013 02:01:26 -73.65, -35.82 87.32 01/25/2013 02:00:13 -73.57, -36.14 87.38 13.84 73
11 01/25/2013 02:50:55 73.75, 131.60 92.78 01/25/2013 02:50:50 73.73, 131.57 92.76 2.71 5
12 01/25/2013 03:40:22 -73.80, -60.88 87.18 01/25/2013 03:41:30 -73.80, -60.94 87.19 2.15 68




NCC Satellite Simultaneous Nadir Overpasses (SNOs) Prediction Service
